Weather History for Sigonella, Italy

Change the Weather History Date:

Wednesday, October 30, 2013

  Actual Average Record
Temperature  
Mean Temperature 70 °F -  
Max Temperature 80 °F 69 °F 80 °F (1999)
Min Temperature 59 °F 49 °F 48 °F (2010)
Cooling Degree Days 4    
Growing Degree Days 20 (Base 50)    
Moisture  
Dew Point 63 °F    
Average Humidity 86    
Maximum Humidity 100    
Minimum Humidity 34    
Precipitation  
Precipitation 0.00 in 0.06 in - ()
Sea Level Pressure  
Sea Level Pressure 30.00 in    
Wind  
Wind Speed 4 mph ()    
Max Wind Speed 12 mph    
Max Gust Speed -    
Visibility 5.3 miles    
Events      
Averages and records for this station are not official NWS values.
T = Trace of Precipitation, MM = Missing Value Source: Averaged Metar Reports

Daily Weather History Graph

Daily Weather History Graph

Search for Another Location

Airport:

Trip Planner

Search our weather history database for the weather conditions in past years. The results will help you decide how hot, cold, wet, or windy it might be!

Date:

Astronomy

Oct. 30, 2013 Rise Set
Actual Time 6:22 AM CET 5:04 PM CET
Civil Twilight 5:56 AM CET 5:31 PM CET
Nautical Twilight 5:25 AM CET 6:02 PM CET
Astronomical Twilight 4:54 AM CET 6:32 PM CET
Moon 1:59 AM CET (10/30) 2:36 PM CET (10/30)
Length of Visible Light 11h 35m
Length of Day
10h 41m
Waning Crescent, 19% of the Moon is Illuminated
Oct 30
Waning Crescent
Nov 3
New
Nov 10
First Quarter
Nov 17
Full
Nov 25
Last Quarter

Hourly Weather History & Observations

Time (CET) Temp. Dew Point Humidity Pressure Visibility Wind Dir Wind Speed Gust Speed Precip Events Conditions
12:55 AM 62.6 °F 62.6 °F 100% 30.01 in 3.7 mi WNW 2.3 mph - N/A   Mostly Cloudy
1:00 AM 63 °F 63 °F 100% 30.01 in 4 mi WNW 2.3 mph - -   Mist
1:55 AM 62.6 °F 62.6 °F 100% 29.98 in 3.7 mi West 3.5 mph - N/A   Scattered Clouds
2:55 AM 60.8 °F 60.8 °F 100% 29.98 in 3.7 mi WSW 4.6 mph - N/A   Mostly Cloudy
3:55 AM 64.4 °F 64.4 °F 100% 29.98 in 3.7 mi West 3.5 mph - N/A   Mostly Cloudy
4:00 AM 64 °F 64 °F 100% 29.99 in 4 mi West 3.5 mph - -   Mist
4:55 AM 62.6 °F 62.6 °F 100% 29.98 in 3.1 mi NNW 2.3 mph - N/A   Mostly Cloudy
5:55 AM 60.8 °F 60.8 °F 100% 29.98 in 3.1 mi SW 2.3 mph - N/A   Scattered Clouds
6:55 AM 60.8 °F 60.8 °F 100% 29.98 in 2.5 mi WSW 2.3 mph - N/A   Scattered Clouds
7:00 AM 60 °F 60 °F 100% 29.99 in 2 mi WSW 2.3 mph - -   Mist
7:55 AM 62.6 °F 62.6 °F 100% 30.01 in 2.5 mi WNW 5.8 mph - N/A   Scattered Clouds
8:55 AM 69.8 °F 68.0 °F 94% 30.04 in 3.7 mi NW 6.9 mph - N/A   Scattered Clouds
9:55 AM 71.6 °F 69.8 °F 94% 30.01 in 5.0 mi WNW 2.3 mph - N/A   Scattered Clouds
10:00 AM 72 °F 69 °F 88% 30.03 in 5 mi WNW 2.3 mph - -   Mist
10:55 AM 77.0 °F 62.6 °F 61% 30.01 in 6.2 mi SSE 2.3 mph - N/A   Scattered Clouds
11:55 AM 77.0 °F 59.0 °F 54% 29.98 in 6.2 mi South 4.6 mph - N/A   Scattered Clouds
12:55 PM 77.0 °F 53.6 °F 44% 29.95 in 6.2 mi North 4.6 mph - N/A   Scattered Clouds
1:00 PM 77 °F 54 °F 34% 29.96 in 10 mi North 4.6 mph - -   Partly Cloudy
1:55 PM 78.8 °F 59.0 °F 51% 29.95 in 6.2 mi East 9.2 mph - N/A   Scattered Clouds
2:55 PM 77.0 °F 64.4 °F 65% 29.95 in 6.2 mi East 11.5 mph - N/A   Scattered Clouds
3:55 PM 73.4 °F 64.4 °F 73% 29.95 in 6.2 mi ESE 11.5 mph - N/A   Scattered Clouds
4:00 PM 74 °F 65 °F 66% 29.96 in 10 mi ESE 11.5 mph - -   Partly Cloudy
4:55 PM 71.6 °F 64.4 °F 78% 29.95 in 6.2 mi ESE 6.9 mph - N/A   Partly Cloudy
5:55 PM 68.0 °F 64.4 °F 88% 29.98 in 6.2 mi North 4.6 mph - N/A   Partly Cloudy
6:55 PM 68.0 °F 66.2 °F 94% 29.98 in 6.2 mi NNW 4.6 mph - N/A   Scattered Clouds
7:00 PM 68 °F 67 °F 94% 30.00 in 9 mi NNW 4.6 mph - -   Partly Cloudy
7:55 PM 64.4 °F 60.8 °F 88% 30.01 in 6.2 mi WSW 4.6 mph - N/A   Scattered Clouds
8:55 PM 64.4 °F 64.4 °F 100% 30.04 in 6.2 mi NW 2.3 mph - N/A   Scattered Clouds
9:55 PM 62.6 °F 62.6 °F 100% 30.04 in 6.2 mi West 3.5 mph - N/A   Partly Cloudy
10:00 PM 63 °F 63 °F 98% 30.06 in 6 mi West 3.5 mph - -   Scattered Clouds
10:55 PM 60.8 °F 60.8 °F 100% 30.04 in - WNW 4.6 mph - N/A   Clear
11:55 PM 59.0 °F 59.0 °F 100% 30.06 in 6.2 mi West 2.3 mph - N/A   Partly Cloudy